Weather Roundup
Issued by NWS Springfield, MO

Home | Current Version | Previous Version | Text Only | Print | Product List | Glossary On
Versions: 1 2 3 4 5 6 7 8 9 10 11 12 13 14 15 16 17 18 19 20 21 22 23 24 25 26 27 28 29 30 31 32 33 34 35 36 37 38 39 40 41 42 43 44 45 46 47 48 49 50
000
NZUS99 KSGF 271057
HRRSGF

HOURLY WEATHER
NATIONAL WEATHER SERVICE SPRINGFIELD MO
500 AM CST MON FEB 27 2017

......SGF CWA......

CITY           SKY/WX    TMP DP  RH WIND       PRES   REMARKS
SPRINGFIELD    CLEAR     35  26  69 SE9       30.01R WCI  28
JOPLIN         CLEAR     34  28  79 SE6       30.01R WCI  29
WEST PLAINS    CLEAR     33  26  75 CALM      30.06R
ROLLA          CLEAR     31  28  89 SE5       30.04R WCI  26

......SURROUNDING SGF CWA......

CITY           SKY/WX    TMP DP  RH WIND       PRES   REMARKS
CHANUTE        PTCLDY    23  22  96 E5        30.00R WCI  17
PARSONS        CLEAR     32  30  92 VRB5      30.00S WCI  27
COFFEYVILLE    CLEAR     30  29  96 CALM      30.00R
EMPORIA        FOG       24  24 100 SE3       29.99R VSB 1/4
HARRISON AR    CLEAR     35  30  82 SE7       30.03R WCI  29

......KANSAS AND MISSOURI......

CITY           SKY/WX    TMP DP  RH WIND       PRES   REMARKS
KANSAS CTY INT CLEAR     28  28 100 S8        30.02S FOG     WCI  20
SEDALIA        FOG       29  27  92 CALM      30.06R VSB 1/4
ST JOSEPH      FOG       26  24  92 S3        30.03R VSB<1/4
ST LOUIS       MOCLDY    40  35  83 E5        30.10R
WICHITA        CLEAR     33  27  78 E7        29.94S WCI  27
TOPEKA         MOCLDY    23  23 100 E3        30.01S FOG
OLATHE         MOCLDY    28  28 100 E5        30.02S FOG     WCI  23

......TENNESSEE......

CITY           SKY/WX    TMP DP  RH WIND       PRES   REMARKS
MEMPHIS        NOT AVBL
NASHVILLE      CLOUDY    46  38  73 SE3       30.21R

......ARKANSAS.......

CITY           SKY/WX    TMP DP  RH WIND       PRES   REMARKS
FAYETTEVILLE   CLEAR     29  29 100 CALM      30.01R
FT SMITH       CLEAR     42  35  76 E7        30.01R
LITTLE ROCK    CLOUDY    46  46 100 NE3       30.06R

......OKLAHOMA.......

CITY           SKY/WX    TMP DP  RH WIND       PRES   REMARKS
TULSA          CLEAR     33  31  92 NW5       29.97R WCI  29
PONCA CITY     CLEAR     34  30  85 N5        29.95R WCI  30
MCALESTER      CLOUDY    51  38  60 E7        29.96S
OKLAHOMA CITY  CLOUDY    46  39  76 SE8       29.90S

......IOWA............

CITY           SKY/WX    TMP DP  RH WIND       PRES   REMARKS
DES MOINES     NOT AVBL
QUAD CITIES    PTCLDY    29  25  85 CALM      30.08R

......ILLINOIS........

CITY           SKY/WX    TMP DP  RH WIND       PRES   REMARKS
QUINCY         NOT AVBL
CHICAGO        PTCLDY    29  23  78 CALM      30.11R




USA.gov is the U.S. government's official web portal to all federal, state and local government web resources and services.